Regional Weather Roundup
Issued by NWS Spokane, WA

Home | Current Version | Previous Version | Text Only | Print | Product List | Glossary On
Versions: 1 2 3 4 5 6 7 8 9 10 11 12 13 14 15 16 17 18 19 20 21 22 23 24 25 26 27 28 29 30 31 32 33 34 35 36 37 38 39 40 41 42 43 44 45 46 47 48 49 50
000
NZUS01 KOTX 271210
RWROTX
EASTERN WASHINGTON/NORTHERN IDAHO ROUNDUP
NATIONAL WEATHER SERVICE, SPOKANE WA
400 AM PST TUE JAN 27 2015

Note: "fair" indicated few or no clouds below 12,000 feet with no
significant weather and/or obstructions to visibility.

...NORTHEAST WASHINGTON AND NORTHERN IDAHO PANHANDLE...

CITY           SKY/WX    TMP DP  RH WIND       PRES   REMARKS
SPOKANE INTL   PTCLDY    30  30 100 NE3       29.98F FOG
SPOKANE DOWNTO CLOUDY    33  30  88 E6        30.01S WCI  28
COEUR D ALENE  CLEAR     28  25  86 NE7       29.99F WCI  21
DEER PARK      FOG       25  24  96 CALM      30.00S VSB 1/4
SANDPOINT      FOG      N/A N/A N/A CALM      30.03S VSB 1/4
BONNERS FERRY  FOG       30  28  93 CALM      30.02F VSB 1/4

...SOUTHEAST WASHINGTON AND SOUTHERN IDAHO PANHANDLE...

CITY           SKY/WX    TMP DP  RH WIND       PRES   REMARKS
WALLA WALLA    FOG       33  32  96 E5        30.00F VSB 1/4 WCI  29
PULLMAN/MOSCOW PTCLDY    41  34  76 E8        30.00F
LEWISTON       PTCLDY    42  36  79 E10       30.00F
LOWELL           N/A     35  33  92 CALM      30.12S

...COLUMBIA BASIN...

CITY           SKY/WX    TMP DP  RH WIND       PRES   REMARKS
EPHRATA        FOG       32  32 100 CALM      30.00F VSB 1/4
MOSES LAKE     FOG       33  33 100 NE3       30.01F VSB 1/4
TRI CITIES     CLOUDY    37  37 100 CALM      30.05F
HERMISTON      FOG       36  35  96 CALM      30.03S VSB 1/2
PENDLETON      FOG       31  31 100 CALM      29.99S VSB 1/4

...EAST SLOPES CASCADES...

CITY           SKY/WX    TMP DP  RH WIND       PRES   REMARKS
THE DALLES     CLOUDY    40  38  93 E3        30.04S FOG
YAKIMA         FOG       34  32  92 CALM      30.01S VSB 1/2
ELLENSBURG     FOG       33  31  92 MISG      29.98F VSB 1/4
WENATCHEE      FOG       34  32  92 CALM      30.01S VSB 1/4
OMAK           CLOUDY    32  31  96 CALM      30.02S FOG

...SOUTHERN BRITISH COLUMBIA...

CITY           SKY/WX    TMP DP  RH WIND       PRES   REMARKS
PENTICTON      CLOUDY    36  34  93 S6        30.01F
CRANBROOK      PTCLDY    30  28  93 SW2       29.97S

...WESTERN MONTANA...

CITY           SKY/WX    TMP DP  RH WIND       PRES   REMARKS
MISSOULA       CLEAR     25  22  88 CALM      30.06F

...NEIGHBORING CITIES...

CITY           SKY/WX    TMP DP  RH WIND       PRES   REMARKS
SEATTLE        CLOUDY    50  47  89 S7        30.00S
CALGARY        PTCLDY    41  27  56 SE8       29.75S



USA.gov is the U.S. government's official web portal to all federal, state and local government web resources and services.